Tracking 28799 objects as of 18-Apr-2024
HD Live streaming from Space Station
objects crossing your sky now

EKRAN 6

Track EKRAN 6 now!
EKRAN 6 is classified as:


NORAD ID: 12120
Int'l Code: 1980-104A
Perigee: 35,763.6 km
Apogee: 35,818.2 km
Inclination: 8.1 °
Period: 1,436.0 minutes
Semi major axis: 42161 km
RCS: 6.3095 m2 (large)
Launch date: December 26, 1980
Source: Commonwealth of Independent States (former USSR) (CIS)
Launch site: TYURATAM MISSILE AND SPACE COMPLEX (TTMTR)
Your satellite tracking list
Your tracking list is empty




NASA's NSSDC Master Catalog

Two Line Element Set (TLE):
1 12120U 80104A   24108.54242084  .00000075  00000-0  00000-0 0  9995
2 12120   8.1404 298.2274 0006485  76.3675  78.9840  1.00281951119482
Source of the keplerian elements: AFSPC